Location: Unspecified
(0.0000°N, 0.0000°E)
Time: 12:54:17
(UTC+00:00)

Tiros 1 - All Passes

Search period start: 26 September 2017 00:00
Search period end: 06 October 2017 00:00
Orbit: 630 x 665 km, 48.4° (Epoch: 26 September)

Date Brightness Start Highest point End Pass type
(mag) Time Alt. Az. Time Alt. Az. Time Alt. Az.
26 Sep - 08:34:11 10° NNW 08:38:33 36° NE 08:42:53 10° ESE daylight
26 Sep - 10:17:22 10° W 10:20:35 18° SW 10:23:48 10° S daylight
26 Sep - 20:46:54 10° SSW 20:51:32 66° SE 20:56:09 10° NE night (unlit)
27 Sep - 08:59:57 10° NW 09:04:41 66° SW 09:09:23 10° SSE daylight
27 Sep - 19:32:32 10° S 19:35:37 17° SE 19:38:43 10° E visible
27 Sep - 21:13:25 10° WSW 21:17:39 35° NW 21:21:55 10° NNE night (unlit)
28 Sep - 07:44:31 10° NNW 07:48:47 32° NE 07:53:00 10° ESE daylight
28 Sep - 09:27:20 10° W 09:30:49 20° SW 09:34:19 10° S daylight
28 Sep - 19:57:13 10° SSW 20:01:47 58° SE 20:06:22 10° NE visible
28 Sep - 21:42:44 10° WNW 21:43:52 11° NW 21:45:02 10° NW night (unlit)
29 Sep - 08:10:08 10° NW 08:14:55 75° SW 08:19:40 10° SE daylight
29 Sep - 18:43:07 10° SSE 18:45:52 16° SE 18:48:38 10° E visible
29 Sep - 20:23:34 10° WSW 20:27:54 39° NW 20:32:15 10° NNE visible
30 Sep - 06:54:54 10° N 06:59:01 28° NE 07:03:07 10° ESE daylight
30 Sep - 08:37:19 10° WNW 08:41:03 23° SW 08:44:47 10° S daylight
30 Sep - 19:07:32 10° SSW 19:12:02 51° SE 19:16:32 10° NE visible
30 Sep - 20:52:14 10° WNW 20:54:06 12° NW 20:55:59 10° NNW visible
01 Oct - 07:20:21 10° NW 07:25:09 85° SW 07:29:56 10° SE daylight
01 Oct - 17:53:45 10° SSE 17:56:06 14° SE 17:58:27 10° E daylight
01 Oct - 19:33:44 10° WSW 19:38:09 44° NW 19:42:35 10° NNE visible
02 Oct - 06:05:17 10° N 06:09:15 26° NE 06:13:11 10° ESE daylight
02 Oct - 07:47:21 10° WNW 07:51:17 25° SW 07:55:14 10° S daylight
02 Oct - 18:17:53 10° SSW 18:22:17 44° SE 18:26:43 10° NE visible
02 Oct - 20:02:00 10° W 20:04:20 14° NW 20:06:42 10° NNW visible
03 Oct - 06:30:35 10° NW 06:35:23 85° NE 06:40:11 10° SE daylight
03 Oct - 17:04:31 10° SSE 17:06:21 12° SE 17:08:10 10° ESE daylight
03 Oct - 18:43:56 10° SW 18:48:24 50° NW 18:52:54 10° NNE visible
04 Oct - 05:15:42 10° N 05:19:28 23° NE 05:23:15 10° ESE visible
04 Oct - 06:57:24 10° WNW 07:01:31 28° SW 07:05:38 10° S daylight
04 Oct - 17:28:13 10° SSW 17:32:33 39° SE 17:36:52 10° ENE daylight
04 Oct - 19:11:51 10° W 19:14:34 15° NW 19:17:19 10° NNW visible
05 Oct - 05:40:50 10° NW 05:45:37 76° NE 05:50:24 10° SE daylight
05 Oct - 16:15:33 10° SE 16:16:35 11° SE 16:17:36 10° ESE daylight
05 Oct - 17:54:08 10° SW 17:58:39 57° NW 18:03:12 10° NNE daylight
